Simultaneous Nadir Overpasses (SNOs) Predictions

Prediction of SNOs between LANDSAT-8 and NPP Satellite Orbit:

Table of predicted SNOs for the next 14.0 days since TLE Epoch: 1/16/2015
Index Date (LANDSAT-8) Time (LANDSAT-8) Lat,Lon (LANDSAT-8) SZA (LANDSAT-8 ) Date (NPP) Time (NPP) Lat,Lon (NPP) SZA (NPP ) Distance(km) Time Diff (sec)
1 01/17/2015 02:01:34 -70.80, -33.02 88.42 01/17/2015 02:00:34 -70.78, -32.97 88.43 2.50 60
2 01/17/2015 02:51:01 70.70, 134.48 91.49 01/17/2015 02:51:19 70.70, 134.46 91.49 0.84 18
3 01/17/2015 03:40:41 -70.03, -58.86 89.16 01/17/2015 03:41:49 -70.00, -57.13 89.25 65.90 68
4 01/19/2015 18:18:01 -70.76, 82.82 88.99 01/19/2015 18:17:22 -70.74, 82.87 89.00 2.76 39
5 01/19/2015 19:07:28 70.66,-109.69 90.91 01/19/2015 19:08:07 70.67,-109.71 90.92 1.14 39
6 01/22/2015 09:44:50 71.31, 31.92 90.97 01/22/2015 09:43:40 71.36, 30.29 91.08 58.59 70
7 01/22/2015 10:34:28 -70.76,-161.31 89.58 01/22/2015 10:34:12 -70.77,-161.39 89.56 3.11 16
8 01/22/2015 11:23:55 70.65, 6.18 90.32 01/22/2015 11:24:56 70.65, 6.12 90.31 2.60 61
9 01/25/2015 02:01:26 70.78, 146.99 89.84 01/25/2015 02:00:18 70.77, 147.07 89.83 3.64 68
10 01/25/2015 02:50:56 -70.67, -45.55 90.28 01/25/2015 02:51:00 -70.69, -45.48 90.27 3.39 4
11 01/25/2015 03:40:28 70.29, 121.53 89.35 01/25/2015 03:41:38 70.26, 122.52 89.28 37.10 70
12 01/27/2015 18:17:52 70.78, -97.13 89.16 01/27/2015 18:17:07 70.75, -97.12 89.15 3.10 45
13 01/27/2015 19:07:22 -70.67, 70.33
